Location: Blythe
(33.2930°N, 82.2020°W)
Time: 05:12:40
(UTC-04:00)

Hubble Space Telescope - Visible Passes

Search period start: 19 August 2017 00:00
Search period end: 29 August 2017 00:00
Orbit: 538 x 542 km, 28.5° (Epoch: 18 August)

Date Brightness Start Highest point End Pass type
(mag) Time Alt. Az. Time Alt. Az. Time Alt. Az.
19 Aug 1.5 05:12:56 37° S 05:12:59 37° S 05:16:49 10° ESE visible
20 Aug 1.6 05:03:25 37° SSE 05:03:25 37° SSE 05:06:44 10° ESE visible
21 Aug 2.0 04:53:56 32° SE 04:53:56 32° SE 04:56:37 10° ESE visible
22 Aug 2.5 04:44:31 25° ESE 04:44:31 25° ESE 04:46:29 10° ESE visible
22 Aug 1.8 06:19:53 10° WSW 06:23:29 31° SSW 06:27:09 10° SE visible
23 Aug 3.0 04:35:10 18° ESE 04:35:10 18° ESE 04:36:21 10° ESE visible
23 Aug 1.9 06:10:33 14° WSW 06:13:19 27° SSW 06:16:50 10° SE visible
24 Aug 3.6 04:25:56 11° ESE 04:25:56 11° ESE 04:26:11 10° ESE visible
24 Aug 2.1 06:01:19 17° SW 06:03:08 23° SSW 06:06:26 10° SE visible
25 Aug 2.3 05:52:12 19° SW 05:52:57 20° SSW 05:55:59 10° SSE visible
26 Aug 2.6 05:43:11 16° SSW 05:43:11 16° SSW 05:45:22 10° SSE visible
27 Aug 3.1 05:34:17 11° S 05:34:17 11° S 05:34:33 10° S visible
